Location: Bellflower
(33.8817°N, 118.1170°W)
Time: 11:45:43
(UTC+00:00)

ADEOS - Pass Details

Date: 23 November 2020
Orbit: 792 x 795 km, 98.9° (Epoch: 21 January)

Event Time Altitude Azimuth Distance (km) Brightness Sun altitude
Rises 12:26:03 0° 12° (NNE) 3,301 6.8 -26.0°
Reaches altitude 10° 12:28:22 10° 13° (NNE) 2,368 6.1 -25.5°
Maximum altitude 12:33:37 88° 287° (WNW) 799 3.4 -24.5°
Drops below altitude 10° 12:38:49 10° 195° (SSW) 2,352 6.0 -23.4°
Sets 12:41:08 0° 195° (SSW) 3,277 6.7 -22.9°
